Location: Unspecified
(52.4292°N, 19.3359°E)
Time: 16:56:13
(UTC+02:00)

Transit 2A Rocket - Pass Details

Date: 29 May 2024
Orbit: 583 x 910 km, 66.7° (Epoch: 14 June)

Event Time Altitude Azimuth Distance (km) Brightness Sun altitude
Rises 12:24:35 0° 315° (NW) 3,444 8.1 59.2°
Reaches altitude 10° 12:27:20 10° 305° (NW) 2,540 7.6 59.2°
Maximum altitude 12:32:15 28° 248° (WSW) 1,631 7.3 59.3°
Drops below altitude 10° 12:37:17 10° 193° (SSW) 2,590 8.4 59.3°
Sets 12:40:08 0° 182° (S) 3,524 8.9 59.3°
